Regional Weather Roundup
Issued by NWS Kansas City/Pleasant Hill, MO

Home | Current Version | Previous Version | Graphics & Text | Print | Product List | Glossary Off
Versions: 1 2 3 4 5 6 7 8 9 10 11 12 13 14 15 16 17 18 19 20 21 22 23 24 25 26 27 28 29 30 31 32 33 34 35 36 37 38 39 40 41 42 43 44 45 46 47 48 49 50

000
ASUS43 KEAX 310504
RWREAX

WEATHER ROUNDUP FOR EASTERN KANSAS AND NORTHWEST MISSOURI
NATIONAL WEATHER SERVICE KANSAS CITY/PLEASANT HILL MO
1200 AM CDT FRI OCT 31 2014

KSZ040-057-103>105-MOZ028-029-037-043-310600-
...KANSAS CITY METROPOLITAN AREA...

CITY           SKY/WX    TMP DP  RH WIND       PRES   REMARKS
K.C. INTL      CLEAR     49  41  74 N13       30.22R
K.C. DOWNTOWN  CLEAR     53  40  61 N12G20    30.21R
LEES SUMMIT    CLEAR     53  40  61 N22G28    30.19R
OLATHE - IXD   CLEAR     50  41  71 N17       30.22R
OLATHE - OJC   CLEAR     52  40  63 N15G22    30.20R
LAWRENCE       CLEAR     49  39  68 N16       30.24R

$$

MOZ001>008-011>017-020>025-030>033-038>040-044>046-053-054-310600-
...NORTHERN AND CENTRAL MISSOURI...

CITY           SKY/WX    TMP DP  RH WIND       PRES   REMARKS
ST. JOSEPH     CLOUDY    51  42  71 N10       30.24R
MOSBY          CLEAR     52  37  58 NW16G24   30.20R
WHITEMAN AFB   CLEAR     52  39  61 N16       30.13R
CLINTON        CLEAR     52  41  66 N12G18    30.14R
SEDALIA        CLEAR     52  40  63 NW12      30.13R
WARSAW         NOT AVBL
MARSHALL       CLEAR     54  43  66 NW9       30.14R
CHILLICOTHE      N/A     52  38  58 N6        30.17R
MOBERLY        CLOUDY    48  41  76 N6        30.11R
KIRKSVILLE     CLOUDY    50  43  77 N8        30.14R

$$

MOZ041-047>049-056>058-063>065-088>090-097-310600-
...EASTERN AND SOUTHERN MISSOURI...

CITY           SKY/WX    TMP DP  RH WIND       PRES   REMARKS
ST. LOUIS INTL MOCLDY    50  45  83 NW7       30.05S
SPIRIT OF STL  CLOUDY    46  45  96 CALM      30.05R
COLUMBIA       CLEAR     45  42  89 N7        30.08R
JEFFERSON CITY CLEAR     46  45  96 NW5       30.08R
MEXICO         MOCLDY   N/A N/A N/A NW7       30.09R
ROLLA          CLEAR     43  41  93 NW3       30.04S
LEBANON        CLEAR     52  41  66 NW7       30.08S
OSAGE BEACH    CLEAR     48  43  81 NW3       30.08R
SPRINGFIELD    CLEAR     52  40  63 NW7       30.11R
BRANSON        CLEAR     54  39  58 NW10      30.11R
JOPLIN         CLEAR     52  41  66 N8        30.17R
WEST PLAINS    CLEAR     50  42  74 NW7       30.05S

$$

IAZ060-094-KSZ022-034>040-054-083-096-NEZ052-066-093-310600-
...KANSAS...SOUTHEAST NEBRASKA AND IOWA...

CITY           SKY/WX    TMP DP  RH WIND       PRES   REMARKS
TOPEKA         CLEAR     49  40  71 N15G22    30.27R
MANHATTAN      CLEAR     47  38  71 N8G21     30.32R
EMPORIA        CLEAR     50  38  63 N15G24    30.26R
CHANUTE        CLEAR     53  41  63 N10       30.21R
WICHITA        CLEAR     54  36  50 N15       30.28R
OMAHA          CLOUDY    42  31  64 N28G40    30.38R WCI  32
LINCOLN        CLOUDY    45  33  63 N20       30.39R
FALLS CITY     CLOUDY    50  41  71 N18G25    30.27R
LAMONI         LGT RAIN  49  40  71 N18G28    30.22R
DES MOINES     MOCLDY    47  34  60 N21G26    30.26R

$$




USA.gov is the U.S. government's official web portal to all federal, state and local government web resources and services.